Location: Chuathbaluk
(61.5726°N, 159.2454°W)
Time: 22:17:52
(UTC+00:00)

Tiros 1 despin weight - All Passes

Search period start: 25 November 2020 00:00
Search period end: 05 December 2020 00:00
Orbit: 593 x 642 km, 48.2° (Epoch: 25 November)

Date Brightness Start Highest point End Pass type
(mag) Time Alt. Az. Time Alt. Az. Time Alt. Az.
25 Nov - 02:17:30 10° SSW 02:20:10 15° S 02:22:48 10° SE daylight
25 Nov - 03:57:55 10° SW 04:00:27 15° SSW 04:02:58 10° SSE visible
26 Nov - 00:54:14 10° S 00:55:52 12° SSE 00:57:30 10° SE daylight
26 Nov - 02:33:17 10° SW 02:36:06 16° S 02:38:54 10° SE visible
26 Nov - 04:14:27 10° SW 04:16:22 12° SSW 04:18:17 10° S visible
27 Nov - 01:09:19 10° SSW 01:11:46 14° SSE 01:14:11 10° SE daylight
27 Nov - 02:49:19 10° SW 02:52:03 15° S 02:54:47 10° SSE visible
28 Nov - 01:24:56 10° SSW 01:27:41 16° S 01:30:26 10° SE daylight
28 Nov - 03:05:37 10° SW 03:07:59 14° SSW 03:10:21 10° SSE visible
29 Nov - 00:01:18 10° S 00:03:22 13° SSE 00:05:26 10° SE daylight
29 Nov - 01:40:49 10° SW 01:43:38 16° S 01:46:27 10° SE daylight
29 Nov - 03:22:23 10° SW 03:23:52 11° SSW 03:25:21 10° S visible
30 Nov - 00:16:40 10° SSW 00:19:17 15° S 00:21:54 10° SE daylight
30 Nov - 01:56:57 10° SW 01:59:35 15° S 02:02:13 10° SSE daylight
30 Nov - 22:53:36 10° S 22:55:00 11° SSE 22:56:23 10° SE daylight
01 Dec - 00:32:24 10° SW 00:35:14 16° S 00:38:02 10° SE daylight
01 Dec - 02:13:23 10° SW 02:15:30 13° SSW 02:17:36 10° S daylight
01 Dec - 23:08:32 10° SSW 23:10:52 14° SSE 23:13:14 10° SE daylight
02 Dec - 00:48:23 10° SW 00:51:10 16° S 00:53:56 10° SSE daylight
02 Dec - 02:30:47 10° SSW 02:31:21 10° SSW 02:31:56 10° SSW visible
02 Dec - 23:24:04 10° SSW 23:26:48 15° S 23:29:32 10° SE daylight
03 Dec - 01:04:37 10° SW 01:07:06 14° SSW 01:09:35 10° SSE daylight
03 Dec - 22:00:36 10° S 22:02:29 12° SSE 22:04:23 10° SE daylight
03 Dec - 23:39:55 10° SW 23:42:45 16° S 23:45:34 10° SE daylight
04 Dec - 01:21:15 10° SW 01:22:59 12° SSW 01:24:44 10° S daylight
04 Dec - 22:15:51 10° SSW 22:18:23 15° SSE 22:20:55 10° SE daylight
